Theta_e
334 330 327 323 322 321 316 311 300 301 293 292 291 292 295 301 300 299 300 301 301 305 308 307 308 309 307 306 309 311 312 305 303 292 298 309 321 331 336 339 340 340 340 340 341 343 345 347 348 346 345 343 342 341 342 342 343 344 347 347 346 346 345 344 344 343 343 342 341 340 340 340 343 343 342 342 341 339 339 338 335 337 338 338 338 338 337 336 336 336 336 336 336 338 338 338 337
331 329 323 321 320 317 310 308 298 292 291 290 292 293 300 300 301 299 299 301 302 307 307 307 309 313 314 314 314 314 311 313 314 304 316 321 329 335 339 339 340 339 339 340 342 341 340 343 348 347 345 343 342 342 342 343 343 344 346 346 346 346 345 344 344 343 343 342 342 340 340 341 341 340 340 340 340 339 337 337 338 339 338 338 338 338 337 336 336 336 336 336 336 337 337 338 338
330 323 321 322 317 315 312 306 299 291 289 287 292 294 301 299 300 301 303 306 306 306 307 307 310 310 310 312 312 309 305 317 317 318 315 323 328 330 338 340 340 340 340 340 341 340 338 343 346 347 343 342 342 343 343 343 344 344 345 346 346 346 345 344 344 343 342 342 342 341 340 340 339 340 340 339 338 338 339 339 337 337 338 337 336 334 335 335 335 335 335 335 337 336 337 338 338
324 321 317 317 312 311 302 301 296 290 290 289 291 295 298 300 301 304 306 307 308 307 308 306 306 310 310 310 313 317 314 315 319 317 317 320 322 335 338 339 340 340 340 341 340 338 338 344 345 345 344 342 343 344 345 345 345 345 345 346 346 346 345 344 343 343 342 342 341 340 339 340 340 340 339 338 337 336 335 336 338 338 337 336 336 336 337 336 336 334 334 335 336 336 337 338 338
321 321 320 314 311 307 305 300 296 291 290 289 290 295 299 303 305 305 307 308 308 308 308 306 307 310 311 312 313 308 310 318 320 322 320 324 329 337 338 339 339 339 339 340 338 336 338 343 343 344 343 342 342 343 345 346 345 345 346 346 346 346 345 344 344 343 342 341 341 340 340 340 339 340 339 339 339 339 338 336 336 337 337 336 336 335 335 335 335 335 334 334 335 336 337 337 337
321 319 322 319 311 312 304 297 296 296 295 294 294 297 301 305 306 306 308 309 310 308 308 303 304 309 312 315 316 312 317 312 319 322 323 323 336 338 339 338 338 338 339 339 337 335 337 342 342 343 343 342 342 345 346 345 345 346 346 346 346 346 345 343 343 342 342 341 341 341 340 339 339 339 339 339 339 339 338 337 335 335 335 335 335 336 336 336 336 335 334 334 335 336 336 337 337
317 315 313 312 311 309 300 296 296 296 300 298 298 300 303 305 307 307 308 309 310 307 308 307 308 309 309 314 315 321 322 322 321 321 325 327 337 338 338 337 337 336 338 338 335 335 336 341 342 343 344 343 342 345 345 345 345 345 346 346 346 346 346 344 342 342 342 342 341 341 340 339 339 339 339 339 339 338 338 335 337 337 336 336 336 334 334 334 334 334 333 334 334 334 335 336 336
319 314 312 306 302 302 297 298 298 296 302 300 301 303 302 306 307 307 306 305 305 304 308 306 305 305 306 317 309 318 324 324 323 325 326 334 337 337 337 337 335 335 336 336 334 334 342 340 342 342 343 344 342 345 345 345 346 345 345 346 346 345 345 343 342 342 342 342 341 341 340 339 339 339 339 338 339 338 338 336 336 336 336 335 334 335 335 335 336 335 333 333 332 333 334 335 335
316 316 312 302 299 298 294 297 298 301 302 303 303 304 310 308 308 307 306 307 307 307 307 306 305 305 307 313 311 316 321 324 324 327 331 336 336 336 337 335 334 334 335 334 333 334 337 339 341 341 342 343 344 345 345 345 345 345 345 346 346 345 345 345 343 342 342 342 341 340 339 340 339 338 338 338 338 337 338 338 338 336 335 335 336 336 335 335 335 334 333 332 332 333 334 334 334
313 311 305 301 299 298 294 295 298 302 302 304 302 305 304 304 305 307 305 306 307 306 307 306 304 302 307 310 312 316 318 324 325 328 332 335 336 336 335 334 335 335 334 333 333 334 334 342 339 339 340 342 343 346 345 345 345 345 346 345 346 345 345 345 343 342 342 342 342 341 340 339 338 338 338 337 338 337 337 337 336 335 336 336 336 335 335 335 334 334 333 333 332 333 333 333 334
306 309 309 303 295 293 294 296 298 301 303 302 303 305 304 304 303 303 305 306 306 306 307 307 307 307 313 313 312 318 323 323 326 327 331 334 335 333 332 334 335 335 333 332 333 333 335 336 341 337 338 340 342 345 345 345 345 345 345 345 345 345 345 345 343 342 342 342 341 341 340 339 339 338 337 338 339 338 337 336 337 337 336 336 336 336 334 334 334 335 333 333 333 332 333 333 333
302 303 303 294 296 297 295 297 298 300 301 300 305 303 305 304 303 302 303 305 305 305 305 306 306 309 311 311 311 318 322 321 324 326 330 331 331 331 333 334 334 334 333 332 333 332 333 335 336 340 336 337 339 342 342 344 345 345 345 345 345 345 345 345 343 343 342 342 341 341 340 339 338 337 340 340 338 339 337 337 337 336 336 336 336 335 335 334 334 334 334 333 332 332 332 332 332
305 303 299 297 296 297 297 297 297 300 296 300 302 306 305 305 304 303 304 305 305 305 305 307 307 311 309 311 313 318 320 322 323 324 327 328 328 331 333 333 333 333 333 332 332 331 331 333 333 336 335 335 336 339 339 341 343 345 345 345 345 345 345 345 344 343 342 341 341 341 340 339 340 340 341 340 339 339 338 338 338 336 336 336 335 334 334 334 334 334 334 333 333 332 332 331 331
308 306 302 299 296 297 298 298 296 297 295 301 301 304 306 306 306 303 305 305 305 304 309 308 310 316 313 311 312 315 318 322 324 325 326 325 327 331 332 332 331 331 331 331 331 331 331 331 333 332 332 333 333 337 336 338 340 342 342 343 344 344 344 344 344 342 342 341 341 340 340 340 340 340 340 339 338 338 337 336 337 337 336 336 335 335 335 334 333 334 333 333 333 332 332 331 331
309 306 299 297 296 295 297 299 301 294 298 300 305 306 305 307 305 306 308 305 308 310 311 312 310 307 303 310 305 316 320 323 325 325 325 324 326 329 331 331 331 330 330 331 331 331 330 330 331 331 331 332 333 334 336 337 336 338 339 340 341 342 342 341 341 340 340 339 338 337 338 338 337 337 336 335 335 335 335 333 333 336 336 335 335 335 334 334 334 333 333 333 333 332 332 331 330
309 304 300 298 294 296 296 299 298 296 298 301 303 305 304 306 307 306 308 308 309 312 310 308 313 307 308 310 308 318 322 324 325 324 324 323 324 326 329 330 330 329 329 329 329 330 330 330 330 330 330 332 333 333 334 335 335 334 336 337 338 338 338 338 337 337 335 334 334 334 334 334 334 333 333 331 332 333 334 329 331 335 336 335 335 335 335 334 334 333 333 333 332 332 332 332 331
308 304 300 293 294 295 297 299 298 296 301 302 303 306 304 302 306 308 308 307 309 308 307 313 312 320 313 313 314 322 323 325 323 323 322 321 321 321 324 325 327 327 329 328 328 329 329 330 329 329 329 332 333 334 334 334 335 333 334 334 334 334 335 335 334 332 330 329 329 329 331 331 329 328 329 326 329 326 325 326 329 333 336 336 336 335 335 334 334 334 334 333 333 332 334 333 331
307 301 295 294 293 296 298 301 300 304 303 303 303 305 303 304 305 308 310 307 305 305 307 313 321 320 320 321 323 324 324 323 323 322 320 320 319 319 320 324 325 326 326 327 328 329 328 329 329 329 329 331 333 335 335 335 334 334 334 335 335 334 333 333 334 336 336 335 328 331 332 329 328 327 327 331 325 326 324 324 327 330 334 334 336 336 335 335 334 334 334 334 334 334 332 323 322
303 296 296 296 295 300 303 303 304 305 303 305 305 305 303 305 305 307 306 305 304 305 305 314 316 318 321 321 322 323 323 322 321 321 320 319 319 320 320 321 323 324 324 326 327 328 328 328 329 329 329 330 332 333 334 333 334 335 334 335 337 333 335 336 336 336 336 335 333 334 331 330 328 327 327 327 326 322 324 323 326 329 330 331 333 335 335 335 334 334 334 334 334 333 324 316 315
303 300 295 296 300 302 304 307 307 307 308 306 306 306 305 307 307 308 306 304 304 305 302 309 310 315 316 318 320 321 322 321 321 320 320 320 320 321 320 320 321 324 325 325 327 328 328 327 328 329 329 330 331 332 333 333 334 335 334 335 338 337 336 335 335 335 336 335 334 333 331 330 328 327 329 330 330 323 321 321 321 323 324 326 329 332 332 332 334 334 333 332 329 322 318 315 313
303 302 297 299 301 302 305 306 306 307 308 307 307 306 306 308 307 308 304 305 303 303 305 309 308 316 318 319 319 320 320 319 319 319 319 320 320 321 322 322 323 324 323 324 324 326 327 327 328 329 329 329 330 330 331 333 333 334 334 334 336 337 336 335 335 334 335 334 333 332 330 328 328 327 326 326 325 324 323 323 323 326 326 326 325 325 324 323 327 323 322 321 316 317 313 316 316
304 302 302 301 302 303 306 306 306 306 306 305 304 306 306 309 308 305 304 302 300 304 308 307 310 319 319 318 319 319 319 319 319 319 319 319 320 320 321 321 320 319 319 322 323 325 326 327 328 329 328 328 329 329 330 331 332 333 333 333 334 335 335 335 335 334 334 333 332 331 329 328 327 326 326 327 325 324 324 324 325 326 326 325 325 326 326 326 325 323 321 319 318 315 315 315 314
299 300 301 302 304 304 303 306 305 305 305 304 305 307 308 306 307 305 305 304 305 306 309 307 309 321 322 322 320 319 319 318 319 319 319 319 319 320 321 322 321 320 320 323 324 324 325 325 327 328 328 328 328 328 329 330 331 332 334 334 333 334 335 334 335 335 335 333 332 330 329 328 327 327 327 328 326 325 325 325 324 325 325 325 324 325 324 324 325 324 323 321 318 315 314 313 313
301 299 299 302 303 304 305 305 305 303 303 303 306 307 307 305 304 306 305 306 306 306 308 308 314 321 322 320 320 320 320 319 319 320 321 320 320 321 321 321 322 321 319 321 323 324 324 324 325 326 327 327 326 327 328 330 331 331 332 331 333 332 333 333 335 335 335 334 332 331 329 329 327 328 328 328 327 325 324 325 325 325 325 325 325 324 324 324 323 323 323 322 319 316 314 314 314
301 300 300 302 302 302 303 303 303 303 302 303 305 305 305 305 305 305 306 307 308 308 308 308 316 319 320 320 319 320 320 320 320 321 321 321 321 321 321 321 321 321 320 321 323 324 324 325 324 325 326 326 327 326 326 329 330 331 330 331 332 330 333 334 334 335 334 334 333 331 329 328 327 328 328 328 326 325 325 324 324 324 324 324 324 322 323 322 322 322 321 320 318 317 315 315 314
302 302 301 302 303 304 303 303 302 303 305 304 304 302 303 304 306 305 307 308 309 309 309 309 314 317 319 319 320 319 319 319 320 320 321 322 321 320 320 320 320 320 321 322 322 323 325 325 325 324 325 326 327 326 326 328 330 330 330 330 331 329 332 333 333 333 334 333 333 332 331 329 327 327 327 328 327 325 325 324 324 324 324 324 323 322 322 322 321 320 319 318 318 317 316 316 315
302 302 302 302 302 302 302 301 303 303 303 303 302 300 302 303 305 301 306 309 310 309 309 310 310 314 317 319 319 320 319 319 320 321 321 320 320 320 320 320 320 321 322 321 322 323 324 324 325 325 325 324 325 325 325 326 329 329 329 329 329 329 331 331 331 332 332 333 333 332 331 329 328 326 326 327 327 326 324 323 323 323 322 323 322 322 321 321 320 319 319 318 317 316 317 317 316
302 301 300 300 300 300 300 300 301 301 303 302 302 301 301 301 303 304 306 306 307 308 308 308 307 307 312 316 318 320 320 321 321 320 319 319 319 320 320 320 320 321 321 321 322 324 324 324 325 325 326 324 324 325 325 325 326 328 328 328 327 328 329 330 330 331 329 331 332 331 331 330 327 327 327 327 326 326 325 324 323 322 322 323 322 322 321 320 320 319 319 318 318 317 316 316 316
300 300 299 297 298 299 299 299 300 301 300 303 303 300 300 300 300 305 306 307 307 307 307 307 307 308 307 308 312 315 319 320 320 320 320 321 322 322 321 322 322 321 323 323 323 322 323 324 325 325 326 325 324 324 325 325 325 325 325 326 326 325 326 328 330 330 331 330 331 331 331 331 328 327 327 327 325 326 325 324 323 323 323 324 322 322 322 320 319 318 317 316 315 314 314 314 314
301 300 297 296 297 296 299 299 300 300 301 302 303 292 295 300 303 304 305 306 306 306 307 308 308 309 308 307 307 308 312 317 317 320 322 322 322 322 322 323 323 323 322 323 323 322 324 325 325 326 325 325 324 325 325 324 324 324 324 324 324 324 324 325 327 330 330 330 330 330 331 330 329 329 328 326 326 325 325 324 323 323 323 323 322 321 321 320 319 318 318 315 316 314 315 314 312
296 296 297 291 291 289 297 300 298 299 300 301 302 293 294 298 300 302 304 306 306 306 307 308 308 309 309 307 307 308 308 310 315 319 321 322 323 323 323 324 323 324 322 322 322 323 323 324 325 325 324 325 324 324 324 325 324 324 324 324 324 324 324 323 325 327 328 329 329 329 330 330 329 329 328 327 325 325 324 324 324 324 323 322 321 320 321 320 320 319 318 317 316 314 314 314 314
294 292 289 289 291 288 294 298 298 298 299 302 300 293 295 299 301 303 304 304 305 305 307 307 307 308 308 308 308 309 311 311 311 313 318 321 322 323 323 323 324 324 323 323 323 323 323 324 324 324 324 324 325 324 325 325 325 325 325 323 324 324 324 324 323 323 326 327 327 328 329 329 328 329 328 328 326 325 324 324 325 324 323 321 321 319 320 320 320 320 319 319 317 316 314 315 313
290 290 283 285 288 291 293 298 298 300 299 298 299 291 291 294 298 303 304 304 304 304 305 305 305 305 306 307 308 309 310 311 311 311 312 316 321 323 323 324 324 324 325 323 323 322 323 323 323 324 324 324 325 325 325 324 325 324 324 324 325 324 324 324 324 323 322 324 325 326 328 328 328 329 329 328 327 326 325 324 324 323 322 322 320 320 320 321 321 320 320 318 319 319 316 316 315
286 288 288 286 289 288 290 293 295 298 298 295 297 295 296 298 298 299 300 301 300 300 302 303 304 304 305 306 307 308 309 309 310 311 311 313 317 321 323 323 324 324 325 324 324 323 323 323 323 323 324 324 325 325 324 324 325 325 324 324 323 324 324 325 324 323 323 323 324 324 326 327 327 328 328 328 327 327 326 325 323 321 321 321 322 321 321 320 321 321 321 321 320 320 318 317 316
288 288 286 288 289 290 290 289 293 296 296 295 295 294 295 298 300 301 301 301 300 301 302 302 302 302 303 303 305 306 307 308 310 312 312 313 314 317 322 323 324 324 325 325 324 324 323 323 323 322 323 324 324 325 324 324 324 324 323 323 322 323 324 324 324 324 324 324 323 324 323 325 325 327 327 327 327 326 325 325 323 320 320 321 321 321 321 320 320 321 321 320 320 321 320 319 318
291 291 290 289 288 289 290 294 296 297 294 291 292 292 294 296 298 301 301 301 299 301 301 300 300 300 300 301 302 304 306 308 310 311 311 311 313 315 319 322 323 324 325 325 324 324 323 323 323 323 323 324 324 324 324 323 323 322 321 320 320 321 323 322 323 324 324 324 324 324 323 323 324 324 326 326 326 326 325 324 323 320 319 320 321 321 321 320 319 319 320 320 320 319 319 319 319
292 291 289 288 289 288 291 293 295 297 293 293 293 292 293 294 296 299 301 301 300 299 300 301 301 302 302 301 301 302 304 307 310 310 309 309 312 314 316 320 322 323 324 324 324 323 323 323 322 322 323 323 323 322 322 322 321 321 321 321 321 322 322 322 322 323 324 324 323 324 323 323 323 323 323 325 326 324 325 325 323 321 319 320 321 321 322 321 320 320 320 320 319 319 318 319 319
291 290 288 288 288 288 290 292 295 297 293 290 292 292 292 293 295 297 299 297 299 300 301 302 303 303 303 302 303 302 303 303 305 307 308 306 310 313 314 317 318 320 321 323 323 324 324 323 322 323 323 323 323 323 323 322 323 322 322 322 322 322 322 321 321 323 323 324 323 323 323 323 323 322 322 324 324 325 324 324 323 322 321 320 320 321 322 319 319 319 320 319 320 318 318 319 318
289 288 286 285 287 289 291 293 294 295 293 290 291 291 293 294 296 297 298 298 300 302 303 303 303 302 302 303 303 304 304 304 305 305 306 307 306 310 314 315 317 321 322 323 324 324 324 323 323 323 323 323 323 323 323 322 323 323 323 323 323 322 323 323 323 323 323 323 323 323 323 323 323 323 322 322 324 324 324 324 323 323 322 320 318 319 321 321 321 320 320 319 318 318 318 318 318
290 287 285 286 287 288 283 288 291 294 293 287 288 291 293 294 295 296 298 299 299 301 302 302 302 302 302 303 304 304 304 304 305 306 307 308 308 307 309 313 316 318 319 321 323 323 324 323 324 323 323 323 323 323 321 324 323 322 322 322 320 322 320 321 322 321 321 322 322 323 323 323 323 323 322 322 322 324 324 323 323 322 322 321 320 319 319 319 320 320 320 319 319 316 315 315 317
292 290 288 287 287 289 289 287 291 293 294 292 290 290 291 293 292 293 295 297 297 298 298 298 298 300 301 301 301 302 303 304 304 304 305 306 307 308 308 312 316 316 318 319 321 323 325 324 324 324 324 323 323 322 322 323 322 319 320 317 315 316 316 316 316 320 321 321 321 322 322 323 323 323 323 322 322 323 323 323 323 322 322 321 321 320 319 319 319 319 319 319 318 317 315 314 314
292 293 292 291 289 289 290 291 291 286 287 291 290 282 284 288 292 293 296 295 295 295 297 297 298 298 298 299 301 302 302 303 304 305 306 306 306 307 308 308 313 315 317 319 321 323 324 325 325 324 324 324 323 323 323 322 321 321 319 318 317 317 317 317 317 318 320 320 320 322 323 323 323 322 323 322 322 321 322 323 323 322 321 321 320 320 320 319 318 318 318 318 317 318 316 313 311
291 292 296 293 292 291 290 290 289 282 282 287 291 284 280 285 287 290 291 292 294 294 294 296 298 299 299 300 301 302 302 303 302 303 304 304 305 305 307 307 309 314 317 319 319 321 323 324 324 325 325 324 324 324 323 321 321 321 320 320 319 319 318 318 320 321 320 320 321 321 322 322 323 322 322 322 322 321 322 322 322 322 322 321 320 320 319 319 319 318 318 317 317 316 316 313 312
289 293 295 295 293 291 291 291 290 285 286 289 290 287 281 283 287 288 289 291 291 293 295 296 298 299 299 300 302 302 303 303 304 304 304 304 306 306 307 308 308 311 317 318 318 319 320 322 323 323 324 324 325 324 323 322 321 321 320 320 319 319 319 319 320 320 320 319 319 320 321 321 322 322 322 322 322 321 320 321 322 322 321 321 320 319 319 320 319 319 318 318 317 316 315 314 313
290 292 297 294 295 294 292 291 290 288 287 285 289 289 284 284 287 292 292 290 290 292 294 296 298 299 300 301 302 303 303 304 304 304 304 304 305 306 307 308 308 309 312 316 318 319 319 320 320 321 323 323 324 324 323 322 321 322 321 320 319 320 320 320 320 318 319 319 319 320 320 320 321 321 322 322 322 322 320 320 321 321 321 321 319 320 320 319 319 318 317 316 316 316 315 315 313
292 294 296 294 295 294 294 290 289 285 286 283 286 289 283 284 285 287 289 289 290 292 294 296 297 299 300 301 302 303 304 304 304 303 304 305 305 306 308 308 307 308 309 312 315 316 317 318 318 318 319 322 324 324 323 323 322 321 321 320 319 320 320 320 320 319 318 318 318 319 319 320 320 320 321 321 321 321 321 320 320 320 320 321 318 319 319 319 318 318 318 317 317 315 316 314 313
293 294 292 290 289 288 284 285 286 286 283 286 289 289 287 281 285 288 288 288 291 293 294 296 297 299 300 301 302 303 303 303 302 302 303 304 305 306 306 306 306 307 306 307 309 311 313 315 317 317 318 320 321 323 323 322 322 322 321 321 320 320 320 320 319 319 319 318 318 318 319 319 320 320 320 320 321 321 321 320 320 320 321 319 318 319 319 319 318 318 318 317 316 315 315 315 313
294 289 287 289 286 286 286 284 285 283 281 287 291 290 290 281 285 288 292 290 295 295 295 295 297 298 299 300 300 301 302 302 302 301 302 303 303 304 305 305 305 305 305 305 306 307 309 312 313 315 317 317 319 320 322 323 323 322 322 321 321 321 321 320 319 319 319 319 318 318 319 319 319 320 320 320 320 320 320 320 320 320 319 320 319 319 319 319 319 318 317 317 316 316 316 314 314
292 288 290 286 277 284 278 284 280 281 280 282 290 290 285 285 290 289 289 291 292 295 297 297 297 297 297 298 298 299 300 300 300 301 301 303 303 305 305 304 303 303 304 304 305 305 306 307 309 312 314 316 317 318 319 321 322 322 322 322 321 321 321 321 320 320 320 320 319 319 318 318 319 318 319 319 319 320 320 319 319 319 319 319 320 320 319 319 318 318 317 316 316 315 315 314 314
290 288 285 283 278 278 276 280 281 281 283 283 285 287 284 288 292 296 295 296 296 296 295 295 296 297 297 298 298 299 299 298 299 300 300 300 302 303 302 302 302 302 302 303 304 304 305 306 306 308 311 314 314 315 316 317 319 321 322 322 322 322 321 321 321 321 321 321 321 320 319 319 319 319 319 319 320 320 320 320 320 320 320 320 319 319 319 319 318 318 317 316 316 316 316 315 314
290 291 289 285 283 276 274 277 275 277 276 279 283 280 276 282 283 289 295 299 300 300 301 300 299 299 300 300 299 299 300 300 298 298 298 299 300 299 300 300 300 300 301 302 303 305 305 306 306 306 308 311 312 314 314 315 317 319 320 322 322 322 322 322 322 322 322 321 321 321 321 321 320 320 320 321 320 320 320 320 320 320 319 319 319 319 318 319 318 317 317 317 316 316 316 315 314
290 290 291 286 283 284 277 274 275 275 272 273 275 280 281 286 289 289 290 291 293 296 298 298 298 297 296 297 299 299 300 300 300 298 298 298 297 297 298 300 301 301 302 302 303 304 304 305 306 306 307 309 310 310 312 313 315 316 316 318 320 321 320 321 321 321 321 321 322 321 321 321 321 321 321 321 321 321 320 320 319 319 320 319 319 319 318 318 318 317 317 316 316 317 316 315 315
287 288 284 287 289 284 276 278 278 274 271 273 276 280 283 287 292 294 293 291 291 291 293 294 294 293 293 295 295 295 296 296 296 297 298 300 301 300 301 302 301 301 302 303 302 303 303 304 305 305 306 305 307 307 309 311 313 313 315 316 317 318 320 320 321 321 321 321 321 321 321 321 322 321 321 321 321 321 321 320 320 320 319 320 319 319 318 318 318 317 316 316 316 317 316 315 316
289 284 288 289 288 286 285 275 275 272 270 272 282 279 281 281 279 287 291 292 289 290 291 291 292 294 296 296 296 297 298 299 299 299 299 300 299 299 300 300 299 300 300 301 301 301 302 303 303 303 304 304 305 305 306 307 308 309 312 314 315 317 318 319 320 320 321 321 321 321 321 320 321 321 321 322 321 321 321 317 320 320 320 320 319 319 319 318 318 317 317 317 317 317 316 316 316
291 288 294 288 280 281 283 278 275 272 272 270 277 280 281 282 283 284 287 289 289 291 292 292 293 294 295 296 297 297 297 297 298 298 298 298 299 299 299 299 299 299 299 299 300 300 301 302 301 302 302 303 303 304 303 304 305 306 308 309 310 312 315 316 318 319 319 319 320 320 320 321 321 321 320 320 320 320 320 320 320 320 320 319 319 319 319 318 318 317 317 317 317 317 316 316 316
289 292 290 287 289 284 282 283 283 282 274 274 270 279 278 285 284 288 287 286 288 289 291 292 293 294 294 294 295 297 296 295 296 297 297 298 298 297 297 297 298 298 299 299 299 300 300 300 300 301 302 302 303 303 303 303 303 304 304 304 305 306 308 310 312 314 316 317 319 319 320 320 320 320 320 320 320 320 319 319 320 319 319 319 319 319 319 319 318 318 317 317 317 317 316 316 316
286 288 285 284 282 285 283 284 283 278 275 277 273 272 276 285 288 290 290 291 289 291 292 292 293 293 293 293 294 296 297 296 295 296 296 296 296 296 297 297 298 298 298 299 299 298 298 299 299 299 300 300 301 301 302 302 302 302 302 302 303 304 305 306 307 309 311 313 316 316 318 319 319 319 319 319 319 319 320 320 320 319 319 319 319 319 319 319 318 317 318 317 317 317 316 316 316
289 289 286 287 285 281 278 276 286 280 279 272 275 273 278 282 290 292 292 292 292 291 293 293 292 293 292 292 292 292 294 294 293 295 294 295 295 296 296 297 297 298 298 298 298 298 298 297 298 298 298 299 300 301 301 301 301 301 300 301 301 302 302 303 303 304 305 308 310 313 315 316 317 318 318 318 318 319 319 320 319 319 319 319 319 319 319 318 318 317 317 318 317 317 316 316 316
Wind_Speed
14 11 9 9 6 0 1 5 2 3 5 1 1 2 1 0 1 2 1 2 2 2 1 1 1 3 3 4 9 5 0 2 3 4 2 1 1 7 8 9 10 10 10 7 5 5 5 6 7 11 12 11 11 12 12 12 12 13 12 12 13 12 12 13 12 13 13 13 13 12 12 13 15 14 14 14 14 13 13 14 12 14 14 14 14 14 14 14 14 13 14 15 16 16 14 14 14
11 10 9 7 5 1 1 1 4 2 6 4 1 1 1 1 3 2 3 2 1 1 1 1 5 9 12 11 8 3 3 2 1 1 1 1 4 6 9 11 11 11 8 7 6 4 3 3 10 11 10 10 12 13 13 12 12 14 13 13 13 12 12 13 13 13 13 13 13 12 12 12 12 13 14 14 14 14 12 13 14 13 13 14 14 13 14 14 14 14 13 14 16 13 11 12 11
11 9 9 6 2 3 1 4 1 1 4 4 1 1 1 2 4 2 3 3 3 1 1 4 7 6 3 2 4 2 1 3 0 0 2 2 9 4 9 11 10 11 10 6 6 5 3 6 10 10 10 11 12 13 13 13 12 12 13 13 13 13 12 13 13 13 13 13 13 12 12 12 13 13 13 14 13 13 13 13 13 12 13 13 13 12 12 12 12 12 12 14 13 10 10 10 11
10 1 4 3 4 5 2 4 3 5 4 4 1 1 1 4 4 4 3 2 0 0 2 3 3 1 6 6 4 4 3 0 1 2 4 5 5 8 9 11 9 8 7 6 5 4 4 8 9 9 9 11 12 13 13 12 12 13 13 13 14 13 13 13 13 13 13 13 12 12 12 13 12 13 12 12 12 12 11 12 14 13 13 13 14 13 13 12 12 11 11 11 10 10 9 10 10
9 6 1 2 1 4 1 1 4 2 3 4 3 2 2 3 5 4 1 1 1 2 1 1 3 4 2 5 1 0 4 0 0 1 1 1 5 9 11 11 10 9 8 6 5 4 5 10 10 9 10 12 12 13 12 13 12 12 13 12 13 13 13 12 12 12 12 12 13 12 12 12 12 13 13 13 13 13 12 11 11 12 12 12 12 12 11 12 12 11 10 9 9 9 9 9 11
7 6 2 1 1 2 5 3 5 2 4 4 3 3 4 5 6 4 2 1 1 1 2 4 1 2 2 2 1 2 3 4 4 1 3 4 12 10 12 11 10 10 9 7 6 5 5 10 10 9 10 12 13 12 12 12 13 12 12 12 13 13 13 13 12 12 12 13 13 13 12 12 12 12 13 13 13 13 13 13 12 12 11 11 12 12 12 12 12 11 9 9 9 8 9 9 10
6 6 4 4 2 4 4 2 1 1 1 5 5 4 7 5 5 5 3 2 2 2 0 1 3 4 4 1 2 1 3 3 4 3 4 7 11 11 11 10 10 10 9 8 7 6 6 11 10 10 10 11 13 12 12 12 12 12 12 12 13 12 13 13 13 12 12 12 13 13 12 11 11 12 12 12 12 12 12 10 13 12 12 12 12 11 10 11 10 10 9 9 8 8 7 9 10
1 2 3 4 1 4 2 0 1 3 0 2 4 7 5 6 5 4 4 3 1 2 1 2 2 4 1 2 2 2 4 1 2 5 7 11 12 11 10 9 9 10 9 6 6 6 8 11 11 10 10 11 12 12 11 11 11 11 11 12 12 13 13 12 12 12 12 12 13 13 12 11 11 11 11 12 12 12 12 12 11 11 11 11 10 10 11 11 10 9 8 7 7 6 7 8 8
5 1 1 4 4 2 3 3 3 3 1 1 1 3 7 9 6 7 3 1 1 0 1 2 3 4 2 3 1 2 3 4 3 7 9 12 14 12 8 9 10 8 8 7 6 6 6 11 11 11 10 8 10 11 11 10 11 11 11 11 13 13 13 13 12 12 12 12 13 13 12 11 11 11 11 11 11 12 12 12 12 11 11 11 11 10 10 10 10 9 7 7 6 5 6 6 7
2 4 3 2 1 4 2 3 6 0 1 2 1 1 5 4 3 4 5 3 4 2 1 1 2 3 2 3 0 2 1 1 5 7 7 11 12 10 8 9 11 11 8 7 6 6 5 9 13 12 10 9 7 10 11 10 11 11 12 12 13 13 13 13 12 12 12 12 12 13 12 12 11 10 11 11 11 11 12 12 11 11 11 11 10 10 10 10 9 9 7 6 5 5 5 5 6
3 5 1 1 5 1 2 6 3 5 0 3 2 1 2 1 5 3 3 5 1 3 1 1 4 3 3 1 1 3 2 2 7 9 8 10 10 8 8 9 10 12 10 9 7 6 5 6 12 12 10 9 6 10 10 9 12 12 12 13 12 12 12 13 12 12 12 12 12 12 12 12 11 10 10 9 8 10 11 11 12 11 11 11 10 10 10 9 10 9 7 6 5 4 4 4 5
3 4 5 2 1 1 2 1 4 6 5 2 1 4 0 3 4 4 3 7 2 1 3 5 2 5 2 0 1 0 0 3 5 5 6 7 7 6 8 7 10 10 12 10 8 6 5 6 6 9 11 9 7 10 9 8 10 11 11 12 13 13 12 12 13 12 12 12 12 12 12 12 11 11 8 7 6 8 10 10 11 11 11 11 10 10 10 9 9 9 7 6 4 3 2 3 4
3 1 3 2 1 0 1 1 2 3 3 2 1 1 0 4 1 6 5 4 2 4 1 3 4 3 1 1 1 1 2 5 4 4 5 6 5 6 7 8 9 10 10 10 9 7 6 5 6 6 7 10 8 10 9 8 7 9 11 12 10 11 13 12 10 12 11 11 11 10 10 11 9 8 6 7 6 7 8 7 9 11 11 11 10 9 9 9 9 8 8 6 5 3 2 1 2
1 2 3 1 0 0 1 2 1 1 3 2 2 2 2 1 1 4 6 5 2 3 1 4 2 5 2 1 1 3 6 5 4 4 4 5 5 6 7 7 8 10 9 10 10 8 7 6 6 5 5 5 5 9 10 9 7 7 8 9 11 12 10 10 9 10 11 10 9 9 9 8 8 7 6 6 7 7 7 6 7 9 11 10 10 10 9 9 9 9 8 7 6 4 3 2 0
1 1 3 1 2 1 1 0 1 2 3 1 2 2 1 3 2 3 6 5 1 3 0 1 3 2 4 6 4 8 9 8 6 4 5 5 6 6 6 7 8 9 9 9 9 9 8 7 6 6 5 4 5 5 5 7 9 7 7 8 8 11 10 11 10 9 10 10 9 8 8 8 7 7 7 7 7 7 6 7 7 7 10 10 10 10 9 9 9 8 8 8 7 6 4 3 2
2 4 2 0 1 1 3 1 0 2 2 2 4 1 3 1 0 1 1 2 2 1 0 0 1 1 3 7 3 8 10 8 6 5 5 5 5 5 6 5 6 8 8 9 9 8 8 8 7 7 7 6 4 5 5 5 7 8 8 9 8 10 10 10 11 10 10 10 10 9 8 7 7 6 8 6 7 7 6 6 8 7 9 11 10 10 10 9 9 9 9 8 8 7 6 4 3
2 4 0 2 3 2 3 1 2 3 6 3 4 1 1 1 1 0 0 2 4 1 4 2 1 3 3 3 2 10 9 8 7 6 5 4 5 6 5 5 5 5 5 7 9 8 8 9 8 7 6 7 7 6 5 5 6 9 8 9 9 10 10 10 10 11 11 10 10 9 9 6 4 4 5 4 6 4 6 7 8 8 9 10 9 10 10 9 9 9 9 9 8 8 6 5 4
2 2 4 1 4 3 3 2 2 2 0 3 3 1 3 0 1 0 1 4 2 2 4 2 5 6 2 1 5 10 10 11 8 9 7 6 4 5 6 6 6 8 6 6 6 9 9 8 9 9 7 8 8 7 5 5 5 7 6 6 6 8 9 9 9 7 8 7 10 9 6 5 5 5 5 6 4 4 5 7 7 6 8 8 8 9 9 9 10 10 10 9 9 7 6 3 3
3 1 3 7 5 6 3 3 1 1 3 4 2 2 1 0 1 1 1 2 3 1 2 3 4 6 6 6 7 12 10 9 9 9 10 10 8 9 8 7 7 5 7 7 7 9 9 8 9 9 9 8 8 7 6 6 6 5 6 6 6 8 8 8 7 7 6 7 7 7 6 5 5 5 5 6 5 7 6 6 6 4 5 6 8 8 9 8 9 10 10 9 9 7 4 3 3
3 5 5 6 6 4 4 2 1 1 0 3 3 1 2 2 1 0 1 0 1 1 2 0 2 0 2 3 5 7 8 8 8 11 11 11 9 10 7 8 8 9 9 8 8 6 8 9 10 10 11 11 10 8 7 7 6 6 6 6 6 6 6 6 7 7 7 7 7 6 6 6 6 5 6 9 7 4 4 5 5 5 4 4 6 7 9 9 9 10 8 7 3 1 3 3 4
2 2 5 5 4 1 6 2 0 3 0 1 1 1 2 3 2 0 2 1 1 2 4 5 6 8 7 6 6 6 8 8 7 7 10 10 9 7 9 11 11 10 6 5 5 9 10 10 9 9 10 10 10 8 9 8 7 6 6 6 6 7 6 7 6 7 7 8 8 7 6 6 6 5 5 5 5 5 4 4 4 4 3 3 3 3 3 4 6 5 3 2 3 3 3 5 5
2 6 4 5 1 2 7 3 5 2 1 4 3 5 2 1 1 1 3 2 4 4 2 5 6 11 12 10 8 6 8 9 9 9 11 12 14 13 9 6 4 2 3 7 9 9 9 9 10 9 9 10 11 9 9 8 8 8 7 7 7 7 7 8 7 7 7 8 8 7 7 7 7 6 6 6 6 5 6 5 4 5 5 5 4 4 4 4 4 4 4 5 4 4 5 5 5
3 2 2 4 3 4 2 4 4 2 3 4 1 4 1 0 2 2 3 5 2 4 2 5 4 12 14 12 11 9 9 11 12 13 12 12 12 11 11 10 9 8 7 9 7 7 8 8 9 9 10 9 11 9 8 8 9 8 8 7 8 8 8 9 9 8 8 8 8 8 8 7 7 7 7 7 7 6 6 7 6 5 7 6 6 6 5 5 5 4 5 5 4 4 5 4 5
1 4 1 3 5 6 5 5 7 1 7 3 3 3 4 3 5 1 3 4 6 4 3 4 4 6 9 11 12 15 15 15 16 16 15 16 16 16 13 13 11 6 5 8 8 8 8 10 10 9 10 10 9 9 10 9 9 9 9 9 9 8 8 9 9 8 8 8 9 8 8 7 8 8 8 8 8 7 8 7 6 6 7 8 7 7 7 6 5 5 5 5 5 5 5 5 5
2 3 3 3 2 4 5 5 6 5 4 4 2 2 5 5 5 1 5 7 6 6 4 1 5 7 9 10 13 12 12 12 13 13 10 9 11 10 7 7 7 7 10 10 9 9 10 9 9 11 10 11 9 9 10 9 9 9 9 9 10 10 9 9 9 8 9 8 9 9 9 8 7 8 9 9 7 9 8 8 7 6 6 9 7 7 7 7 7 7 6 6 5 6 5 6 5
4 7 3 2 2 3 4 4 6 8 6 3 1 4 5 8 3 4 8 7 7 5 2 4 5 7 8 10 12 12 12 14 14 12 15 13 9 9 11 10 9 10 14 11 10 11 10 9 10 12 11 11 10 9 9 9 9 10 10 11 10 10 10 10 9 9 9 8 9 10 10 9 8 8 8 8 9 9 9 8 8 8 9 8 8 9 8 7 7 6 6 6 6 6 6 6 5
0 3 2 4 6 4 4 4 5 5 3 3 3 5 5 5 4 9 2 8 6 5 6 5 5 7 9 9 9 10 12 14 15 14 8 6 9 12 13 10 11 14 10 11 11 11 10 10 11 12 10 9 9 10 9 10 9 10 10 9 8 10 10 9 9 9 9 9 9 10 10 10 8 8 8 8 8 9 9 8 9 7 8 8 8 8 7 8 7 7 7 7 7 6 7 6 6
5 4 3 4 3 3 4 3 5 2 5 1 1 6 5 3 3 12 4 5 4 6 7 6 5 5 7 9 9 9 10 12 11 7 13 11 12 13 12 13 15 13 11 14 12 10 10 12 14 13 11 9 10 10 9 9 10 10 9 8 9 9 9 9 9 9 9 9 10 10 10 10 8 8 9 9 9 9 9 9 8 8 9 8 8 8 7 7 8 7 7 7 7 7 7 6 6
2 4 6 5 4 4 1 4 5 3 4 4 1 5 10 3 9 7 6 5 3 5 7 7 7 6 5 7 9 7 11 12 7 9 13 14 13 11 15 15 14 13 12 13 11 8 12 13 13 13 12 11 11 12 10 9 8 8 8 8 8 8 8 8 9 10 9 9 9 10 10 10 9 9 9 10 10 9 9 8 8 9 8 8 7 8 7 6 6 7 8 6 7 6 7 7 6
0 1 1 4 6 8 6 2 1 3 3 2 2 8 6 13 12 9 5 5 4 5 8 8 8 8 7 5 6 8 9 9 7 11 12 11 10 11 14 14 14 13 11 10 10 13 12 9 10 9 12 13 13 12 11 9 9 8 8 8 7 8 8 8 9 8 8 8 8 10 10 11 10 9 9 9 9 9 9 9 10 9 8 8 7 7 7 6 7 7 8 6 7 7 7 6 6
5 3 2 5 2 6 2 4 4 5 3 4 3 11 7 6 6 7 5 5 7 9 11 10 9 9 7 5 5 6 8 9 12 13 13 12 11 10 14 13 12 13 8 8 14 17 13 11 9 9 12 14 13 13 13 12 10 10 9 9 8 9 8 8 8 7 7 8 8 9 10 11 11 11 10 9 10 9 9 9 10 9 7 7 7 7 8 7 7 9 7 9 7 7 7 7 7
1 3 6 1 7 4 4 4 5 8 3 5 3 11 11 13 9 9 9 5 6 9 11 10 8 7 9 7 7 9 11 9 10 11 12 13 12 11 12 13 11 11 13 13 14 12 13 13 12 12 11 14 14 15 13 12 12 11 10 10 9 9 9 8 8 8 8 7 8 8 9 10 11 11 11 10 10 10 10 10 9 7 7 7 7 6 7 8 8 8 8 8 8 9 7 8 6
3 4 2 2 3 6 5 6 6 8 4 3 10 9 2 6 7 10 11 10 9 9 10 9 8 8 8 8 8 8 9 11 8 9 11 11 11 11 11 12 11 13 14 12 12 11 13 14 13 14 15 16 15 14 13 11 11 11 11 11 12 10 10 10 9 8 7 8 8 9 10 10 10 11 11 11 10 10 9 9 8 8 6 7 7 7 8 8 7 8 8 8 8 9 8 10 7
3 0 5 5 6 3 6 5 3 5 6 6 5 9 11 13 11 6 6 5 6 6 9 10 8 7 8 8 8 9 9 10 12 11 11 10 11 12 12 11 12 13 13 13 13 14 15 13 14 15 14 14 13 13 13 12 11 11 9 9 8 10 11 10 9 8 10 9 9 10 10 11 11 12 12 11 10 10 9 9 7 7 7 7 8 8 9 7 8 8 10 8 8 9 9 9 9
10 6 5 5 3 5 6 3 3 2 2 8 7 8 10 13 14 12 8 5 4 8 10 10 10 9 9 7 7 8 9 10 12 11 10 9 10 11 11 11 11 11 10 13 12 12 10 10 11 13 13 13 13 12 11 11 10 9 7 8 8 9 9 9 9 9 10 9 10 10 10 10 11 11 11 10 10 10 9 9 8 7 7 7 8 8 8 8 9 9 11 9 7 9 9 8 8
15 13 9 6 8 7 8 6 5 2 5 5 8 10 10 13 15 17 11 7 5 8 7 6 7 6 5 6 7 7 8 11 10 9 9 7 7 9 10 10 10 11 11 11 12 11 12 11 9 10 11 12 11 9 9 9 9 9 10 7 8 10 10 10 10 11 10 11 12 11 10 10 9 10 10 10 10 10 10 10 10 7 7 7 9 10 10 9 11 11 11 10 10 8 8 8 7
3 1 3 5 8 5 3 4 5 4 4 11 12 11 11 13 12 16 13 11 9 7 7 8 8 8 8 5 5 8 8 11 9 8 7 8 9 9 9 7 8 8 9 9 9 11 12 13 11 13 12 9 9 10 10 11 12 10 8 11 14 12 12 11 10 11 11 12 11 11 11 10 10 10 10 10 12 11 11 10 10 9 8 9 10 12 11 11 10 9 9 8 10 11 10 8 8
6 6 6 8 6 9 4 5 4 5 4 4 4 8 11 12 11 13 12 5 10 12 13 13 12 10 7 7 9 9 10 5 7 8 8 6 7 7 6 7 7 8 10 9 12 15 14 13 13 14 9 9 10 11 11 11 12 13 14 15 15 13 12 12 13 12 13 11 11 11 11 11 12 11 11 12 12 12 12 11 11 11 10 10 11 10 10 10 10 10 9 9 9 11 11 7 6
4 6 5 4 7 2 4 6 4 3 2 9 7 12 12 10 9 9 11 9 8 11 13 14 12 10 8 8 8 10 9 10 9 9 8 8 7 7 6 8 8 12 13 13 15 14 13 11 12 11 9 10 11 11 9 11 11 11 11 11 10 8 8 9 10 9 8 10 10 11 12 12 12 13 13 12 12 13 13 12 12 11 11 10 10 11 12 13 12 13 12 11 9 8 10 6 8
8 5 4 9 3 6 5 5 5 4 6 3 1 9 11 9 9 11 11 8 6 10 10 9 7 9 10 10 11 11 11 11 11 12 13 11 10 8 5 6 9 9 9 8 9 10 9 9 10 10 10 11 11 12 13 13 9 5 5 5 3 5 4 4 7 6 8 9 12 12 12 13 14 14 12 13 13 13 14 14 12 10 12 11 11 12 12 14 12 12 12 13 11 11 9 9 9
8 9 7 3 4 5 5 4 2 4 6 3 3 9 13 8 9 7 8 10 7 6 5 5 5 6 7 6 6 7 11 10 11 10 9 9 10 11 12 10 9 9 10 10 10 10 9 13 14 13 12 12 12 12 13 11 7 5 5 3 2 3 3 3 4 9 11 11 11 11 17 15 15 13 13 14 13 15 14 13 13 13 12 12 11 12 12 14 13 12 13 12 13 14 12 9 8
8 10 11 7 4 5 2 2 3 3 6 5 2 7 10 4 13 15 10 8 10 4 7 7 7 6 5 7 11 9 8 8 11 13 12 10 11 11 10 10 8 8 10 11 11 12 12 12 12 11 10 9 11 13 14 10 10 9 7 8 9 9 9 9 12 16 14 13 16 14 10 12 13 13 13 13 14 13 14 15 14 13 13 12 12 13 12 11 13 13 14 13 14 15 12 9 10
10 7 10 6 7 6 4 5 2 3 7 4 1 9 12 1 3 5 6 5 9 4 4 6 7 7 7 9 8 9 10 11 9 9 10 9 10 9 11 10 10 9 11 10 8 8 10 11 11 12 11 11 12 12 12 9 10 9 12 13 13 12 12 11 12 9 6 7 7 8 10 9 11 13 13 13 13 13 13 13 14 13 13 12 11 11 13 15 13 13 11 12 14 11 11 14 15
9 4 11 10 8 7 7 6 8 6 0 5 2 3 8 14 9 3 4 5 5 6 8 8 8 8 9 8 10 11 12 10 10 11 12 10 11 11 12 13 10 12 12 8 8 8 10 12 11 11 10 11 10 11 10 11 12 12 12 12 13 13 13 16 13 10 8 6 8 10 9 9 10 11 12 12 13 12 13 13 13 12 13 13 11 13 15 14 11 11 12 13 11 11 13 15 15
3 5 12 12 10 9 6 6 6 2 2 9 8 1 5 9 3 8 8 7 5 7 9 10 10 9 9 11 12 11 12 11 11 11 12 11 11 12 11 11 11 10 8 8 10 10 10 9 10 7 8 9 10 10 10 11 12 13 13 12 12 12 13 13 11 7 8 8 10 10 10 11 10 11 12 12 13 13 12 13 13 13 14 14 12 13 14 13 14 13 12 13 14 13 13 14 11
2 7 5 4 7 7 7 7 6 2 4 14 10 6 7 18 4 2 1 6 8 10 11 11 9 10 11 11 11 12 11 10 8 8 10 11 11 11 11 9 7 9 9 8 7 6 6 6 7 9 9 9 11 11 11 12 13 12 12 12 14 14 12 12 10 11 9 6 10 11 10 10 10 10 11 13 13 13 14 13 13 15 16 14 12 15 14 13 14 14 16 14 14 14 12 12 15
2 5 3 2 2 2 1 2 3 2 13 19 7 12 10 12 4 11 8 7 7 9 6 6 7 9 10 11 12 11 10 8 8 8 8 10 11 10 9 8 8 7 6 5 7 7 6 6 8 8 12 10 9 11 11 13 13 13 13 14 15 16 15 13 11 11 10 10 10 11 10 10 9 10 10 11 12 13 14 14 14 14 13 13 13 14 15 15 14 14 13 13 14 16 14 14 14
6 3 5 3 3 1 2 0 2 10 13 7 12 12 13 12 3 5 7 3 10 12 9 10 10 12 12 11 10 9 8 8 7 6 8 8 9 11 9 9 9 6 4 5 6 5 5 5 5 7 9 10 11 11 11 12 12 12 12 14 15 15 15 13 14 15 13 13 12 11 9 8 9 10 10 9 11 13 13 13 13 13 14 14 15 14 13 13 13 11 11 12 13 15 14 13 14
7 5 8 11 4 5 6 5 12 12 11 1 12 11 6 16 22 3 2 5 5 8 10 12 11 9 9 9 10 8 7 6 6 6 6 7 7 10 9 7 6 5 5 5 6 5 5 4 4 5 9 9 9 8 9 10 10 11 12 14 14 13 14 14 14 14 12 12 11 11 10 11 9 9 10 11 12 14 13 12 13 14 14 14 15 14 15 14 12 12 12 14 14 15 15 15 14
10 11 8 10 8 8 9 7 1 4 3 1 5 5 7 4 15 16 16 11 9 6 5 6 8 10 9 9 7 6 7 6 6 6 7 7 7 6 5 6 5 4 4 4 4 4 3 3 4 4 8 8 6 6 7 7 9 11 11 12 12 12 13 13 13 13 13 11 10 11 11 11 11 12 11 13 12 13 12 14 14 14 15 15 15 15 14 14 13 13 13 14 15 15 13 16 17
13 7 12 12 9 5 10 8 13 11 5 2 3 2 7 8 7 1 16 20 20 17 16 15 11 11 12 7 5 7 8 7 4 4 4 5 6 6 5 4 4 4 4 4 4 5 5 5 5 4 5 5 5 5 5 6 8 9 9 10 10 9 11 11 12 11 12 12 11 11 11 10 11 11 11 11 11 12 13 13 13 14 15 15 14 14 14 14 13 13 13 14 14 13 15 14 15
8 7 5 9 14 4 7 4 3 3 3 3 2 8 6 11 2 1 2 2 4 10 11 11 11 5 2 4 6 7 7 7 6 5 5 5 5 4 3 3 3 3 4 3 3 2 2 3 4 5 4 5 5 4 4 4 5 5 5 6 9 9 9 9 9 9 11 11 13 12 12 11 11 11 10 9 11 12 13 13 14 15 15 14 14 15 14 13 13 14 13 13 15 12 14 16 16
7 8 14 11 2 6 2 4 1 3 3 8 3 6 8 7 13 7 5 2 2 1 1 4 6 1 0 1 2 3 3 3 3 2 1 1 2 3 2 3 5 6 7 7 6 5 6 7 9 9 7 5 5 4 4 4 5 5 6 6 7 8 10 11 12 13 13 12 12 11 11 12 11 10 10 10 11 11 12 13 14 14 14 15 15 15 15 14 14 14 14 15 16 14 14 15 15
6 12 11 4 1 4 7 8 2 3 5 6 10 13 9 4 11 1 7 9 4 1 0 1 3 5 7 2 3 3 4 2 1 1 0 1 2 3 5 6 6 7 6 8 8 6 6 6 7 8 9 10 9 8 7 6 5 4 5 6 7 7 8 10 10 12 12 11 11 10 10 11 11 11 11 10 10 12 12 12 13 13 13 14 15 14 14 15 15 14 15 15 15 14 15 13 14
10 10 9 11 4 8 6 3 13 5 7 3 6 6 9 10 12 1 3 8 4 4 5 5 4 5 5 3 2 0 1 3 3 4 4 5 7 8 7 6 6 7 6 6 6 7 8 8 7 7 7 5 5 5 5 5 5 5 5 6 6 7 6 7 8 9 9 10 12 12 12 12 11 11 11 11 10 11 11 11 12 13 13 14 14 14 14 14 15 14 15 14 15 14 15 15 14
2 6 8 1 2 8 12 12 4 8 9 4 7 11 11 8 6 8 7 6 6 5 5 6 6 5 5 4 3 1 2 4 4 4 4 6 7 6 6 6 7 7 7 7 7 8 10 7 8 7 7 7 8 9 8 8 6 5 7 7 6 6 7 7 8 8 9 10 11 11 12 12 13 11 11 11 11 11 11 12 11 12 13 13 13 14 14 14 14 15 14 14 14 15 16 16 15
5 7 7 1 1 2 3 2 9 6 5 12 6 7 2 7 7 10 10 10 8 10 9 7 6 5 4 4 2 0 0 1 2 2 4 5 5 6 6 6 6 6 6 7 7 7 5 6 7 7 7 7 7 7 7 6 6 7 6 8 9 8 9 8 8 8 9 10 10 10 10 11 9 11 10 11 12 12 12 12 13 12 13 13 13 14 12 13 14 15 15 16 15 15 17 16 14
12 14 12 13 10 5 7 9 3 6 7 5 8 14 2 3 4 10 11 10 10 7 11 9 8 6 4 2 2 1 0 1 4 4 5 5 5 5 5 6 6 8 9 9 7 6 7 6 5 6 5 6 6 7 7 7 6 6 6 7 8 7 7 7 8 8 9 9 9 9 9 9 10 11 9 11 12 11 11 12 12 13 13 13 13 14 13 13 15 16 16 13 14 15 16 17 15
Wind_Direction
326 330 323 313 306 95 53 3 79 316 63 9 72 41 223 327 194 53 22 343 53 288 240 359 30 40 109 149 135 130 349 145 214 130 210 230 120 140 129 128 134 138 146 152 157 172 180 168 159 135 144 141 142 144 146 147 149 140 136 134 134 131 131 128 128 124 122 120 118 118 114 111 110 110 109 105 103 98 98 103 99 98 99 99 96 96 92 95 93 94 102 106 108 99 94 88 84
322 326 318 308 311 57 337 109 101 4 38 58 21 80 174 299 45 146 122 128 195 199 217 141 71 92 102 119 130 121 49 10 222 180 51 178 107 112 136 135 143 144 148 151 158 162 171 176 139 147 152 145 146 147 147 150 152 146 140 138 137 135 132 132 130 129 126 123 123 121 117 114 110 107 108 107 107 107 106 100 102 106 105 100 95 95 100 100 98 100 106 110 108 100 89 82 70
321 335 328 341 19 56 37 43 71 68 81 67 293 166 19 67 136 218 193 157 195 225 189 120 110 95 85 98 32 70 245 345 60 355 108 175 117 185 145 142 146 145 147 152 151 151 149 145 142 151 151 149 148 151 150 150 146 145 141 141 142 140 136 135 134 133 130 128 123 125 121 118 115 112 110 108 105 108 112 112 106 95 91 95 98 101 100 100 98 99 109 117 109 96 82 73 66
317 320 337 19 340 27 55 21 83 126 103 184 55 290 188 163 183 186 212 209 272 318 30 1 60 257 107 62 138 91 68 80 231 166 138 189 192 150 144 140 139 139 140 146 149 144 145 140 143 148 152 155 157 153 151 151 152 149 147 147 145 142 141 136 137 135 135 131 126 125 125 124 125 121 115 111 113 109 102 102 107 115 113 105 104 103 98 95 104 105 109 114 108 96 82 69 64
329 324 164 95 93 3 83 116 128 96 124 195 149 266 231 196 169 204 230 253 323 85 44 89 72 354 87 119 117 131 204 107 280 199 160 174 143 147 141 138 139 142 148 148 141 145 143 142 146 148 157 161 160 155 154 153 157 156 153 150 147 146 142 139 138 139 136 135 135 131 128 125 122 117 116 115 114 115 114 110 107 104 97 101 102 100 106 108 105 105 107 110 110 97 79 68 59
315 343 16 86 38 160 49 30 350 357 220 151 126 215 202 200 163 190 162 104 86 27 128 65 135 151 20 348 153 115 166 129 197 238 154 181 147 149 145 142 142 150 152 148 146 147 146 147 144 150 160 162 165 158 157 157 157 158 157 152 148 148 141 141 139 141 143 141 137 134 127 127 120 122 121 118 116 117 118 116 113 113 115 118 118 118 115 111 110 113 117 118 114 99 80 68 59
327 2 357 21 8 52 143 133 232 197 290 151 171 176 190 210 191 131 120 63 353 45 359 125 108 90 75 292 24 85 271 219 120 212 152 152 140 147 146 148 144 150 154 152 149 149 154 149 148 153 162 166 168 158 158 158 157 158 156 149 148 151 148 144 144 146 149 145 141 135 133 131 132 128 125 127 125 123 122 124 128 129 122 117 113 109 114 113 114 116 122 124 119 101 81 64 59
271 41 323 83 290 43 18 259 282 165 111 158 197 155 199 188 181 135 159 96 201 114 24 117 163 99 254 40 151 274 342 269 235 133 126 141 142 149 153 146 146 151 150 149 153 152 157 153 153 159 163 170 173 160 159 160 157 156 155 153 155 157 153 148 149 150 152 149 144 137 137 138 135 132 136 133 131 130 128 125 119 113 109 111 117 119 118 120 118 116 119 123 117 100 80 63 56
355 55 39 69 21 31 35 354 297 233 303 41 226 239 183 173 176 136 148 225 82 150 89 133 131 89 216 40 72 276 301 329 97 110 137 143 148 155 153 154 145 147 147 151 152 154 157 158 159 158 161 175 172 166 161 160 160 157 157 159 163 163 157 152 151 152 153 150 144 142 141 143 137 142 141 136 134 132 129 129 127 128 126 126 126 126 122 124 124 128 128 125 118 102 79 64 52
10 66 340 103 128 2 6 316 33 339 253 284 235 193 162 180 175 136 143 106 181 118 220 75 122 116 137 112 324 328 271 8 115 107 143 148 151 156 150 158 147 146 147 150 154 155 159 160 157 155 160 170 178 157 159 162 161 159 162 163 166 165 161 155 154 154 156 152 149 148 149 146 149 150 144 139 143 139 137 135 134 132 131 129 131 130 133 131 132 136 137 132 124 107 83 65 49
358 5 133 55 30 12 36 302 318 325 344 320 319 255 233 180 129 121 144 150 170 145 229 168 56 116 79 202 208 256 292 107 131 154 157 151 155 152 143 151 147 146 152 155 155 154 162 157 154 152 158 169 170 153 154 165 166 162 163 164 164 164 164 162 157 157 157 156 154 153 152 152 154 150 147 149 143 140 141 139 140 141 140 141 139 139 140 142 142 139 142 143 135 121 89 68 52
30 350 10 95 98 165 244 244 290 281 299 354 167 294 251 143 106 107 114 125 212 128 172 136 188 140 63 73 283 309 40 156 157 149 153 146 152 136 141 145 146 149 151 154 152 155 160 160 150 153 157 168 152 157 155 171 171 168 164 168 168 166 167 172 160 160 159 159 158 158 158 157 155 158 149 131 132 143 146 147 147 147 147 147 144 144 146 146 146 150 149 151 147 133 107 76 57
103 120 68 81 219 142 244 302 258 276 328 285 213 290 46 65 131 164 163 110 131 123 296 221 134 84 147 177 273 301 178 211 199 155 151 157 137 137 135 141 146 146 148 149 150 158 162 158 156 152 158 168 150 159 162 173 177 171 166 167 170 163 170 170 169 160 162 162 162 162 164 163 156 146 128 142 150 147 153 150 153 154 154 152 150 151 153 154 155 154 155 157 165 158 149 117 71
102 172 121 287 46 245 178 265 31 85 299 249 269 280 345 101 253 165 128 105 207 147 267 182 109 126 98 49 269 208 218 215 197 166 149 142 122 139 138 140 144 148 152 153 158 164 163 162 158 156 154 167 158 163 166 174 184 174 170 167 161 165 173 166 175 164 163 161 162 165 166 160 140 139 125 137 151 147 154 158 155 155 160 158 160 163 161 161 162 161 162 166 170 178 180 167 163
343 126 85 123 318 47 256 104 271 144 225 240 292 355 32 357 111 99 128 117 202 209 309 89 160 101 235 151 268 207 194 201 173 165 148 116 116 136 137 143 150 151 157 162 163 161 167 161 163 160 156 167 166 169 173 177 184 182 175 170 167 164 170 171 163 170 161 161 159 165 167 150 147 143 135 137 137 142 150 157 152 157 164 170 171 172 173 171 169 170 171 173 176 181 187 193 203
174 81 83 112 271 110 271 182 359 105 264 340 272 43 68 314 300 85 226 154 200 339 161 128 29 278 160 167 216 190 164 166 165 143 135 110 100 126 136 150 155 163 166 168 167 172 165 166 166 167 164 163 173 177 179 177 186 180 177 175 170 167 165 170 166 169 162 164 163 163 163 153 153 152 148 144 145 142 150 158 162 170 176 178 182 181 181 180 182 179 181 183 185 184 189 198 207
58 79 266 45 259 160 255 132 111 348 268 271 287 2 94 301 301 149 206 43 117 298 49 7 354 12 141 217 258 125 139 138 129 130 124 131 118 129 141 152 160 171 179 181 172 174 171 169 172 167 176 168 168 177 184 182 187 181 180 173 173 174 168 172 174 167 168 169 165 165 158 157 164 165 158 160 150 148 158 164 170 184 183 186 187 187 187 190 191 193 194 194 193 195 190 191 208
62 176 124 205 199 158 218 183 170 194 43 305 339 357 113 153 342 313 10 7 54 24 65 349 27 36 337 290 102 116 132 138 147 145 164 174 155 156 167 179 169 187 187 189 197 173 173 180 176 175 175 178 170 172 181 185 188 185 182 179 177 177 175 174 175 174 174 171 171 163 165 168 173 178 176 168 159 157 164 172 171 186 192 190 185 193 192 193 198 203 203 204 203 199 186 191 220
136 116 125 218 184 235 161 181 210 40 323 293 292 352 142 128 114 286 84 343 19 56 21 31 38 10 27 52 107 123 138 145 154 165 172 179 186 184 184 180 190 180 197 197 198 188 179 180 181 179 179 179 175 175 181 184 185 184 186 184 182 178 176 176 176 177 179 175 175 172 173 174 180 184 181 180 177 176 173 181 173 171 195 197 191 193 191 192 199 208 208 211 210 198 183 200 220
229 125 210 237 209 243 268 151 241 157 218 351 356 1 32 297 180 319 110 185 24 154 195 3 40 284 103 90 119 134 145 158 168 171 183 191 195 191 184 192 196 200 196 195 190 192 188 187 187 183 183 181 179 182 181 184 185 186 185 187 185 181 166 174 182 182 182 180 178 179 175 179 180 185 194 185 167 163 178 181 176 166 179 204 210 196 195 193 194 206 211 213 205 170 197 218 222
268 143 189 220 211 213 269 121 290 327 264 216 9 312 37 328 311 112 197 101 342 262 214 168 201 184 178 174 157 157 156 164 183 188 190 195 201 208 203 197 196 197 190 174 190 199 198 190 186 191 188 182 183 185 184 186 184 185 187 189 185 186 180 176 175 188 185 183 184 181 183 180 182 186 183 181 172 172 178 194 191 187 185 206 208 194 198 216 196 192 202 171 207 214 217 230 224
95 211 194 185 116 216 262 257 199 142 360 64 350 344 238 310 40 7 164 168 215 201 221 207 198 166 162 174 180 167 175 177 187 192 202 201 196 203 211 228 240 203 164 189 203 198 199 198 191 190 192 187 186 185 188 183 180 192 191 189 185 188 187 183 178 189 193 190 186 187 184 183 186 184 184 186 183 182 186 189 195 191 195 197 201 202 211 212 210 204 192 202 217 218 222 225 222
233 300 244 215 207 208 269 299 163 49 331 319 291 251 39 80 269 235 192 185 230 215 186 204 178 168 179 164 159 176 183 190 193 200 202 207 213 212 206 205 200 203 194 211 203 200 191 199 200 194 196 191 191 186 186 184 192 191 190 191 190 193 188 186 188 194 197 192 191 190 188 190 189 187 189 188 190 184 194 194 192 194 197 190 199 203 202 216 224 215 208 213 221 216 229 230 228
110 232 281 275 202 221 246 258 287 295 171 220 216 5 292 263 271 212 190 246 232 218 231 222 181 158 138 154 180 181 188 191 200 203 200 204 204 210 205 200 207 201 192 213 207 209 196 195 195 197 202 193 194 189 189 192 191 190 192 188 196 193 190 191 196 199 196 197 195 196 195 191 189 192 194 191 192 188 196 194 197 198 202 202 196 203 206 209 210 222 225 232 231 227 227 231 231
186 256 238 251 170 229 246 253 278 260 212 223 174 226 242 221 224 180 231 241 252 250 198 220 119 138 160 170 185 194 196 203 208 210 212 218 214 217 224 230 214 198 210 209 206 206 212 199 185 198 202 199 195 189 196 198 193 193 191 194 198 190 196 198 198 194 200 199 199 199 196 196 196 197 196 196 188 197 198 199 199 204 187 198 193 209 196 199 212 216 217 227 229 231 227 236 233
186 212 220 262 258 287 275 308 288 285 288 155 306 235 254 249 296 264 229 238 243 260 239 163 132 143 175 191 196 195 201 204 209 208 211 210 206 205 219 214 210 211 215 207 202 210 208 201 198 198 199 200 196 189 199 199 199 197 198 199 198 191 200 199 195 199 200 198 202 202 201 199 197 198 199 195 194 200 199 199 203 207 203 203 201 208 204 207 212 208 216 220 224 228 229 232 224
208 349 250 239 259 270 279 239 267 279 268 289 274 273 265 257 139 268 267 232 245 265 260 262 156 179 195 202 206 210 205 210 208 211 213 211 209 209 217 207 208 220 213 214 210 209 202 198 208 206 197 193 194 198 197 201 199 202 201 201 196 200 200 197 201 203 201 202 202 201 204 204 196 198 197 195 200 200 200 199 205 202 205 205 203 209 200 208 206 209 208 211 214 218 227 223 218
321 252 316 296 282 263 266 319 274 323 290 253 191 270 264 266 169 242 231 263 217 218 252 258 262 205 203 217 214 215 217 224 218 195 207 201 209 210 211 205 212 211 207 217 213 204 196 202 208 208 203 189 193 203 201 200 201 204 200 199 204 204 196 202 204 205 206 205 201 202 204 204 200 199 196 196 200 200 202 202 202 203 211 207 204 206 203 205 207 213 213 214 214 211 221 224 225
221 228 275 297 317 304 253 209 244 183 260 272 307 326 283 231 232 236 217 235 211 217 242 254 255 250 224 212 223 220 223 228 212 206 218 211 210 205 211 212 207 204 212 213 209 200 206 203 204 207 202 197 195 201 204 207 204 202 199 203 207 202 203 206 209 209 209 208 205 203 204 204 201 201 200 200 200 203 201 201 206 211 211 206 206 208 206 204 210 215 222 215 219 216 219 228 224
41 100 166 310 315 297 250 200 188 145 250 161 105 271 212 248 246 255 233 229 239 244 250 246 249 253 246 231 207 229 236 236 223 220 224 219 216 209 216 217 208 206 207 204 194 207 206 206 205 202 201 202 202 202 202 203 206 206 204 203 203 203 206 209 216 215 212 211 208 208 206 205 205 205 200 204 202 205 204 205 208 211 209 207 204 201 207 204 214 213 217 206 219 212 218 222 218
188 246 129 222 287 258 254 166 196 197 241 206 142 250 241 257 275 273 259 207 212 226 240 242 244 250 251 236 242 234 236 225 225 223 225 223 219 215 218 220 208 212 206 198 200 208 196 203 197 206 201 203 202 206 204 205 200 203 205 207 206 201 203 212 216 220 219 214 209 214 210 206 208 207 206 203 205 206 209 214 214 213 197 196 199 200 202 207 212 217 206 217 221 227 228 228 225
335 128 238 314 196 281 296 303 176 214 269 208 150 261 257 258 250 253 255 214 204 227 234 236 238 250 260 262 253 254 255 236 232 234 227 225 220 220 218 222 209 208 209 207 210 201 200 202 196 204 200 205 204 205 206 206 204 203 204 207 208 206 208 207 207 211 216 216 213 216 213 212 208 209 209 207 209 207 211 216 221 212 200 191 199 194 198 207 209 218 217 213 221 232 227 240 224
348 162 265 241 212 241 329 263 213 209 207 268 193 244 321 297 253 240 233 225 217 227 244 253 250 252 257 258 255 251 256 264 251 233 232 226 228 226 224 222 209 208 210 209 209 203 207 202 197 203 202 204 206 205 206 206 205 208 207 206 208 205 211 214 209 198 202 209 209 212 211 210 210 210 209 209 214 212 216 221 220 211 200 201 200 202 206 210 205 217 224 219 222 238 231 244 238
285 265 201 203 188 198 224 298 292 216 191 243 229 240 248 262 268 272 298 245 231 216 236 244 244 240 246 252 256 257 254 258 258 250 238 220 225 223 224 221 214 210 211 210 206 202 207 202 201 204 207 203 203 203 203 204 207 208 211 211 210 213 217 217 213 201 209 209 205 212 206 208 210 209 208 207 213 215 216 221 220 207 201 206 209 208 218 211 219 218 231 222 221 234 240 242 251
189 200 201 261 241 192 213 147 258 85 170 218 253 251 259 261 270 271 259 272 215 225 227 230 238 239 245 250 260 263 259 252 252 253 247 233 224 225 223 223 219 214 213 212 207 207 209 212 210 211 206 201 204 204 202 204 207 212 214 211 211 220 224 222 216 216 216 211 213 210 204 210 211 211 209 207 211 214 218 219 217 205 200 208 211 215 220 217 221 224 229 233 228 233 239 243 250
199 187 194 188 190 220 218 231 270 239 270 230 229 241 243 248 258 263 256 248 222 233 238 244 244 243 246 250 256 262 264 262 256 259 263 264 236 223 221 221 218 213 214 210 209 204 207 208 212 217 214 207 201 199 194 202 204 207 208 212 225 222 220 218 217 222 218 218 218 210 208 210 210 210 210 209 212 214 219 221 219 201 201 204 213 218 220 216 219 224 232 232 236 240 237 239 236
201 136 189 195 202 260 285 250 236 226 249 253 252 247 242 253 248 256 250 242 241 241 249 241 240 240 241 245 244 249 258 256 260 255 256 254 252 242 226 215 221 224 223 214 208 210 207 206 198 214 215 210 200 198 199 198 201 205 212 212 218 214 215 213 217 221 221 222 219 215 215 214 209 206 209 207 212 214 218 220 219 211 199 205 215 222 219 221 218 219 228 225 232 238 239 223 231
177 194 200 224 195 229 225 233 249 249 181 272 238 260 253 248 250 255 263 241 245 241 243 245 248 251 250 242 256 259 247 270 282 280 265 243 244 244 235 217 204 209 225 211 210 212 210 206 200 213 196 202 213 212 209 206 206 201 199 208 210 210 207 205 216 216 218 219 215 216 218 218 213 208 206 207 211 212 215 218 218 217 205 211 219 222 222 220 215 215 214 230 219 230 242 205 209
212 187 196 225 242 269 286 260 272 256 183 263 256 257 261 258 252 255 252 232 226 230 227 232 229 235 242 245 246 253 268 268 272 268 269 275 262 256 237 225 221 214 217 208 213 213 212 206 211 211 198 199 209 211 213 221 220 218 210 221 212 224 222 221 226 224 219 220 218 217 217 218 215 217 208 205 211 212 216 216 220 216 214 212 215 221 220 220 216 215 209 219 224 226 241 209 200
223 205 163 219 188 155 267 283 241 261 195 273 295 282 272 256 249 250 251 236 226 228 232 234 211 220 227 231 228 234 242 253 257 259 267 272 276 265 237 235 231 224 223 223 224 221 217 214 216 210 206 204 208 208 210 220 224 258 270 286 298 241 238 237 233 229 222 218 223 216 219 215 213 217 208 208 212 212 211 215 215 214 218 211 214 221 221 223 216 217 213 217 216 234 221 229 201
222 218 221 189 180 202 170 250 314 291 277 177 319 292 281 231 242 245 252 250 248 245 259 250 247 227 226 245 271 247 241 242 248 255 255 260 265 266 260 239 226 223 223 221 216 213 211 212 214 210 208 205 208 209 211 215 206 218 224 273 339 300 287 239 231 236 224 221 227 218 222 212 216 215 210 210 210 215 213 215 213 215 214 213 213 221 222 223 218 218 214 216 212 222 230 226 211
224 226 211 206 180 216 258 322 8 8 312 309 65 337 271 217 211 228 227 237 243 230 226 244 244 239 237 238 240 250 252 246 244 251 249 242 243 255 261 259 243 230 229 226 217 212 211 215 216 214 213 210 212 212 210 201 203 206 189 203 226 227 234 222 221 224 217 215 220 229 232 220 219 219 216 213 212 214 216 215 214 214 214 212 213 220 226 226 224 217 213 213 221 219 229 229 236
208 222 196 198 195 201 214 235 141 254 246 281 143 218 274 54 260 237 240 232 250 277 241 245 246 246 242 239 243 246 248 254 253 253 262 260 251 248 254 252 243 238 234 228 224 222 219 220 217 212 211 212 213 214 205 192 202 206 205 209 215 217 226 237 236 246 252 245 253 249 237 234 229 226 225 219 217 215 218 217 216 217 217 216 214 217 224 223 223 219 213 213 220 215 213 232 232
227 165 164 192 191 199 209 202 197 240 268 294 300 180 259 284 248 230 219 211 247 263 266 252 246 244 243 246 247 248 247 249 254 256 250 246 250 243 246 244 240 233 234 222 219 220 219 222 218 213 213 215 215 213 204 195 202 207 210 214 216 221 221 234 231 232 228 230 231 237 235 232 229 228 230 225 223 219 218 221 219 218 219 220 213 218 224 223 221 222 212 217 219 213 212 222 233
211 180 162 194 189 207 208 198 226 236 306 255 249 162 291 248 283 183 174 217 232 245 244 250 250 243 243 245 245 246 248 246 239 247 257 255 251 249 243 248 241 241 245 230 221 219 218 221 223 221 219 218 223 213 206 202 206 209 212 213 221 225 230 237 241 224 225 221 231 231 227 227 225 225 226 228 224 222 218 220 218 219 220 220 214 224 227 222 220 218 213 213 215 216 215 223 229
251 169 146 131 187 204 198 220 219 258 197 246 224 161 235 273 163 208 295 205 206 223 229 240 237 237 239 246 253 252 254 254 250 243 253 261 257 254 250 248 254 235 235 235 241 235 226 222 222 220 223 218 218 214 206 207 207 213 217 216 222 228 228 238 239 236 234 223 230 231 230 228 225 223 222 224 224 222 222 218 219 220 221 220 217 223 226 224 223 221 219 216 216 219 219 219 224
151 119 91 48 98 129 46 139 163 153 231 238 189 166 198 280 197 194 158 216 179 208 236 241 244 254 257 252 249 252 253 255 260 262 260 261 268 271 271 263 251 256 241 238 244 237 229 217 221 220 227 226 222 220 208 209 208 210 217 218 222 228 230 233 237 242 236 236 235 234 230 230 226 225 224 225 223 225 226 222 221 224 224 223 222 224 224 222 222 222 223 221 221 219 219 220 227
133 150 131 99 301 53 133 283 103 216 244 241 143 183 195 229 284 195 192 232 183 190 209 218 231 236 240 247 252 253 259 261 261 267 271 270 280 280 274 268 263 266 282 251 247 254 249 239 230 233 241 232 229 224 217 215 211 214 219 221 225 228 231 232 233 239 234 236 235 239 237 235 229 227 224 224 223 223 225 225 223 224 225 224 225 226 228 226 225 221 221 220 224 224 225 223 225
168 128 147 174 213 168 233 150 209 207 232 255 161 172 229 222 247 179 295 256 230 210 196 210 219 235 245 251 252 255 255 261 266 266 270 278 270 277 299 319 338 325 292 282 269 264 251 251 257 260 261 258 250 245 233 224 217 217 218 222 226 229 233 235 239 241 241 240 237 238 234 234 229 230 221 224 224 222 221 223 221 222 225 224 227 225 227 226 224 223 222 223 223 223 221 221 224
185 182 171 177 189 200 217 206 325 317 249 246 182 177 230 272 278 246 235 235 235 214 221 215 211 224 235 241 250 262 265 262 278 292 297 296 307 322 313 291 278 277 282 285 286 282 282 273 252 221 247 254 251 244 239 238 232 229 226 227 229 229 235 237 240 242 244 241 238 239 236 236 233 228 225 225 224 224 221 221 223 225 225 227 226 228 228 225 223 223 224 226 225 227 225 223 228
196 182 189 197 191 180 206 195 204 210 220 173 242 107 225 170 227 262 186 218 225 231 236 238 233 235 249 273 311 310 299 287 252 255 264 273 267 248 255 275 300 304 298 304 322 337 346 326 321 299 303 305 318 298 289 255 245 239 236 235 237 236 238 239 242 243 247 248 246 243 242 241 239 236 229 231 224 224 224 223 224 225 225 226 225 227 227 227 224 225 227 228 230 228 228 225 229
204 188 181 211 213 167 192 190 165 239 236 176 215 212 204 221 350 244 263 14 234 235 232 244 256 281 335 288 276 268 271 286 307 297 274 275 285 301 324 337 325 333 336 327 353 348 10 16 14 11 343 318 329 325 305 288 280 283 278 262 252 248 248 250 254 250 247 245 248 244 245 241 242 241 238 232 227 223 225 223 223 225 225 225 224 225 225 225 223 225 227 227 230 226 230 226 230
184 161 209 217 79 108 57 296 193 71 57 244 186 294 284 308 280 271 273 124 277 358 235 232 254 284 43 320 283 280 270 281 299 311 322 9 43 53 67 50 32 23 18 16 21 18 28 29 27 22 18 16 14 358 327 310 301 296 276 259 254 249 247 245 247 249 249 249 248 249 249 246 245 242 242 231 233 225 226 224 225 225 224 225 226 224 224 224 223 224 226 226 230 227 229 229 229
141 201 202 106 44 115 179 218 147 163 182 242 192 219 244 205 273 238 213 227 210 304 296 180 122 130 96 92 86 81 81 97 114 94 234 349 10 21 26 38 34 31 21 17 16 12 30 36 33 29 23 14 2 3 3 355 338 315 300 294 285 273 267 263 259 260 259 260 257 254 253 253 246 243 239 238 231 231 230 225 227 227 225 224 226 225 223 223 222 226 227 228 229 227 231 231 230
198 200 151 158 157 214 213 139 230 197 215 257 243 214 237 198 233 70 173 206 213 135 115 113 127 104 119 131 114 105 25 34 21 20 17 21 24 22 23 27 19 26 27 25 22 23 26 27 28 40 31 16 360 357 359 349 355 340 324 313 305 299 290 283 278 275 274 266 263 259 256 253 255 249 246 243 238 237 233 230 227 230 227 227 225 226 223 224 222 229 227 230 228 227 230 232 230
21 116 177 280 179 219 184 201 228 204 240 240 256 188 242 193 218 228 228 196 184 181 157 165 157 152 145 141 107 85 38 21 6 12 21 26 36 46 39 29 26 24 27 22 24 26 28 19 30 23 15 14 7 6 1 353 348 341 327 323 317 308 302 295 289 287 280 272 269 268 264 262 256 254 249 246 243 240 237 236 232 229 229 228 226 225 223 224 223 228 228 228 229 225 232 233 233
173 165 180 218 221 256 86 234 205 200 207 223 258 252 262 218 192 208 217 219 208 178 175 176 174 181 179 161 162 200 222 336 355 71 70 56 49 40 38 35 28 25 29 30 28 24 17 20 22 14 14 2 3 350 350 341 336 336 335 328 324 324 316 312 306 299 291 286 284 278 273 269 270 259 253 249 246 242 239 239 238 234 230 228 227 227 222 223 225 228 227 229 229 226 231 234 232
178 181 194 187 174 191 192 238 193 213 198 206 201 240 258 282 204 206 212 218 208 210 157 172 182 188 197 219 243 217 284 337 12 43 60 63 53 44 40 40 34 31 20 15 8 14 14 14 359 358 1 3 352 346 345 331 327 321 323 321 322 320 316 317 313 309 301 299 297 294 291 288 272 269 259 256 252 247 243 242 241 240 235 231 230 228 224 222 226 228 229 227 228 226 231 234 231